[[{"header":{"parameterUnit":"m.s-1","parameterCategory":1,"la1":30.2991,"la2":30.254,"lo1":-89.0895,"lo2":-89.0444,"dy":0.0017,"dx":0.0017,"nx":28,"ny":28,"refTime":"2024-06-01T09:00:00:Z","depth":0,"parameterNumber":2,"parameterNumberName":"U-component_of_WINDS"},"data":[0,0,0,0,0,0,0,0,0,0,0,0,0,0,0,0,0,0,0,0,0,0,0,0,0,0,0,0,0,0,0,0,0,0,0,0,0,0,0,0,0,0,0,0,0,0,0,0,0,0,0,0,0,0,0,0,0,0,0.053,0.0531,0,0.0591,0.0591,0.0592,0.0659,0.066,0.0661,0.0662,0.0721,0.0721,0.0722,0,0,0,0,0,0,0,0,0,0,0,0,0,0.047,0.0471,0.053,0.0531,0.0532,0.0591,0.0591,0.0592,0.0659,0.066,0.0662,0.0663,0.0721,0.0721,0.0722,0,0,0,0,0,0,0,0,0,0,0,0,0,0.051,0.0471,0.053,0.0572,0.0577,0.059,0.0591,0.0592,0.0659,0.066,0.0662,0.0663,0.072,0.0721,0.0722,0.0698,0,0,0.0725,0.0725,0,0,0,0,0,0,0,0,0.0508,0.0512,0.0565,0.057,0.0574,0.0619,0.0592,0.0628,0.0659,0.0628,0.0662,0.0664,0.0685,0.0689,0.0697,0.0701,0.0703,0.0725,0.0726,0.0726,0.0726,0,0,0,0,0,0,0,0.0505,0.051,0.0554,0.0566,0.0572,0.0587,0.0595,0.0599,0.0647,0.063,0.0636,0.0642,0.0688,0.0696,0.0699,0.0704,0.0725,0.0726,0.0726,0.0727,0.0691,0.069,0,0,0,0,0,0,0.0496,0.0507,0.0552,0.0556,0.0544,0.0587,0.0596,0.0603,0.0647,0.0656,0.0641,0.0645,0.0694,0.0698,0.0701,0.0676,0.0726,0.0727,0.0727,0.0693,0.0691,0.0689,0,0,0,0,0,0,0.0495,0.05,0.055,0.0533,0.0541,0.0587,0.0595,0.0604,0.0612,0.0655,0.0664,0.064,0.0695,0.07,0.0699,0.0679,0.0727,0.0728,0.0694,0.0692,0.069,0.0625,0,0,0,0,0,0,0.0493,0.0499,0.049,0.0532,0.0541,0.0546,0.0594,0.0604,0.0614,0.062,0.0657,0.0665,0.0697,0.0697,0.07,0.0681,0.0729,0.0696,0.0693,0.0691,0.0629,0.0621,0.0614,0,0,0,0,0,0.049,0.0469,0.049,0.0495,0.0532,0.0545,0.055,0.0589,0.0612,0.0603,0.0632,0.0663,0.0681,0.0696,0.07,0.0681,0.0698,0.0694,0.0691,0.0633,0.0623,0.0614,0,0,0,0,0,0,0.0422,0.0475,0.0499,0.049,0.0513,0.0557,0.0547,0.0577,0.0592,0.0597,0.0643,0.0651,0.0644,0.0663,0.0679,0.0661,0.0694,0.0691,0.0649,0.0639,0.0632,0.0627,0.073,0,0,0,0,0,0.0406,0.0413,0.0459,0.0447,0.0458,0.05,0.0507,0.0535,0.056,0.057,0.0598,0.0619,0.063,0.0636,0.0648,0.0633,0.0642,0.0622,0.0614,0.0608,0.0605,0.0598,0.059,0.0678,0.0678,0.0678,0,0,0.0373,0.0403,0.0404,0.0434,0.0455,0.0461,0.0508,0.0511,0.0516,0.057,0.057,0.0592,0.0619,0.0611,0.0608,0.0626,0.0582,0.0604,0.0598,0.0598,0.0594,0.0585,0.0578,0.0676,0.0676,0.0676,0,0,0.0315,0.0339,0.0332,0.0352,0.0384,0.0413,0.0411,0.0451,0.0467,0.0469,0.051,0.0515,0.0532,0.0551,0.0562,0.0513,0.0542,0.0515,0.0475,0.0468,0.0461,0.0455,0.0437,0.043,0.0512,0.0512,0.0512,0,0.027,0.0281,0.0324,0.0326,0.0338,0.0389,0.0382,0.0399,0.0432,0.0438,0.0458,0.0482,0.0504,0.05,0.0489,0.0496,0.0495,0.0511,0.0459,0.0453,0.0448,0.0431,0.0425,0.0508,0.0509,0.0509,0.0509,0,0.0223,0.023,0.0221,0.0253,0.0264,0.0261,0.0304,0.0309,0.0337,0.0363,0.0364,0.0393,0.0412,0.0413,0.0439,0.0413,0.0423,0.045,0.0484,0.0435,0.0421,0.0415,0.0503,0.0504,0.0505,0.0506,0,0,0.0123,0.0181,0.0176,0.0192,0.0231,0.0237,0.0236,0.0256,0.026,0.0281,0.0281,0.0296,0.0321,0.0334,0.0363,0.0357,0.0316,0.0384,0.0386,0.037,0.0289,0.0268,0.026,0.0336,0.0335,0.0334,0.0286,0,0.0072,0.0075,0.0115,0.0106,0.0113,0.0162,0.0162,0.0185,0.021,0.0219,0.0247,0.0256,0.0289,0.0297,0.0293,0.0321,0.03,0.0325,0.0336,0.0336,0.0327,0.0252,0.023,0.0183,0.0281,0.028,0.0279,0,0.0012,0.0032,0.0024,0.0064,0.0069,0.0068,0.009,0.0098,0.0125,0.0144,0.0159,0.0192,0.0194,0.0227,0.0229,0.0246,0.0253,0.0267,0.0266,0.0268,0.0304,0.0251,0.0169,0.0162,0.0271,0.0271,0.0272,0,-0.0061,-0.0037,-0.0038,-0.0026,0.0021,0.0019,0.0038,0.0068,0.0077,0.0096,0.0103,0.0121,0.0131,0.0144,0.0181,0.0202,0.0179,0.0215,0.0194,0.0193,0.0186,0.0185,0.0103,0.0191,0.0191,0.0192,0.0192,0,-0.0123,-0.0129,-0.007,-0.0071,-0.0076,-0.0031,-0.0038,-0.0014,0.0011,0.0016,0.0059,0.0062,0.0111,0.0119,0.0148,0.0145,0.0149,0.0164,0.0172,0.016,0.0158,0.0164,0.0168,0.019,0.019,0.019,0.0191,0,-0.0206,-0.0166,-0.0164,-0.0119,-0.0108,-0.0115,-0.0077,-0.0076,-0.0047,-0.0043,-0.0039,0.0005,0.0017,0.0055,0.0076,0.0096,0.0084,0.01,0.0075,0.008,0.0056,0.0058,-0.0026,-0.0035,0.006,0.0059,0.0058,0,-0.0249,-0.0252,-0.0207,-0.0201,-0.0183,-0.0173,-0.0162,-0.0117,-0.0108,-0.0076,-0.008,-0.0064,-0.0049,-0.0032,0.0001,0.0017,0.0033,0.0002,0.0035,0.0023,0.0031,0.0031,0.003,-0.0005,-0.0007,-0.0008,-0.0009,0,-0.0329,-0.0308,-0.0294,-0.0273,-0.0261,-0.0242,-0.0221,-0.0219,-0.0168,-0.016,-0.0147,-0.0135,-0.0112,-0.0098,-0.0076,-0.0056,-0.0025,-0.0019,-0.0023,-0.0036,-0.005,-0.0043,0.0055,-0.0018,-0.0017,-0.0016,-0.0015,-0.0015,-0.0393,-0.0394,-0.0362,-0.0348,-0.0326,-0.0308,-0.0304,-0.0275,-0.0262,-0.024,-0.0214,-0.0204,-0.0175,-0.0142,-0.0125,-0.0117,-0.01,-0.0106,-0.0107,-0.011,-0.0116,-0.005,-0.0113,-0.0112,-0.0112,-0.0112,-0.0112,0,-0.0472,-0.0448,-0.0435,-0.0406,-0.0395,-0.0363,-0.0338,-0.0331,-0.0322,-0.0298,-0.0283,-0.0268,-0.0253,-0.0218,-0.02,-0.02,-0.0185,-0.0197,-0.0197,-0.0193,-0.0132,-0.013,-0.0209,-0.0209,-0.0209,-0.0209,-0.0209,-0.0209,-0.0511,-0.0511,-0.0486,-0.0475,-0.0452,-0.044,-0.0429,-0.0411,-0.0391,-0.0375,-0.0362,-0.0339,-0.031,-0.0289,-0.0274,-0.0264,-0.026,-0.0277,-0.0263,-0.0207,-0.0197,-0.0189,-0.0187,-0.0277,-0.0277,-0.0325,-0.0325,-0.0326]},{"header":{"parameterUnit":"m.s-1","parameterCategory":1,"la1":30.2991,"la2":30.254,"lo1":-89.0895,"lo2":-89.0444,"dy":0.0017,"dx":0.0017,"nx":28,"ny":28,"refTime":"2024-06-01T09:00:00:Z","depth":0,"parameterNumber":3,"parameterNumberName":"V-component_of_WINDS"},"data":[0,0,0,0,0,0,0,0,0,0,0,0,0,0,0,0,0,0,0,0,0,0,0,0,0,0,0,0,0,0,0,0,0,0,0,0,0,0,0,0,0,0,0,0,0,0,0,0,0,0,0,0,0,0,0,0,0,0,2.2451,2.245,0,2.2434,2.2434,2.2434,2.2436,2.2437,2.2437,2.2437,2.2417,2.2417,2.2416,0,0,0,0,0,0,0,0,0,0,0,0,0,2.2481,2.2481,2.2451,2.245,2.245,2.2434,2.2434,2.2434,2.2436,2.2437,2.2437,2.2437,2.2418,2.2417,2.2416,0,0,0,0,0,0,0,0,0,0,0,0,0,2.2467,2.2481,2.2451,2.245,2.2449,2.2434,2.2434,2.2434,2.2436,2.2437,2.2437,2.2438,2.2418,2.2417,2.2416,2.24,0,0,2.2412,2.2411,0,0,0,0,0,0,0,0,2.2468,2.2466,2.245,2.245,2.2449,2.2438,2.2438,2.2422,2.2436,2.2441,2.2437,2.2438,2.2424,2.2422,2.2418,2.2399,2.2398,2.2412,2.2411,2.2411,2.241,0,0,0,0,0,0,0,2.2469,2.2466,2.2444,2.245,2.2449,2.2449,2.2448,2.2435,2.243,2.2441,2.2441,2.2439,2.2423,2.2419,2.2417,2.2398,2.2412,2.2411,2.241,2.241,2.2365,2.2364,0,0,0,0,0,0,2.247,2.2467,2.2445,2.2444,2.246,2.2448,2.2447,2.2441,2.243,2.2429,2.2439,2.2439,2.2421,2.2419,2.2417,2.2397,2.2411,2.2409,2.2409,2.2365,2.2365,2.2364,0,0,0,0,0,0,2.2471,2.2468,2.2445,2.2455,2.2453,2.2447,2.2441,2.2441,2.2436,2.2429,2.2428,2.2435,2.2421,2.2418,2.2404,2.2397,2.2409,2.2408,2.2366,2.2365,2.2364,2.2358,0,0,0,0,0,0,2.2472,2.2468,2.2463,2.2455,2.2452,2.2434,2.2441,2.244,2.2434,2.2435,2.2425,2.2424,2.2421,2.2406,2.2403,2.2395,2.2407,2.2366,2.2365,2.2365,2.2359,2.2357,2.2356,0,0,0,0,0,2.2473,2.2461,2.2462,2.246,2.2445,2.2433,2.2431,2.2429,2.2434,2.2428,2.2423,2.2424,2.2398,2.2404,2.2401,2.2393,2.2367,2.2366,2.2365,2.236,2.2358,2.2356,0,0,0,0,0,0,2.2466,2.246,2.2461,2.2447,2.2441,2.2434,2.2426,2.2427,2.2419,2.2419,2.2416,2.2414,2.24,2.2395,2.2402,2.2377,2.2383,2.2381,2.238,2.2378,2.2377,2.2378,2.2406,0,0,0,0,0,2.2463,2.2455,2.245,2.2437,2.2434,2.2431,2.2425,2.2425,2.2418,2.2415,2.2409,2.2401,2.2392,2.2385,2.2375,2.2359,2.2357,2.2352,2.235,2.2349,2.2347,2.2338,2.2335,2.2361,2.2361,2.2361,0,0,2.2456,2.2452,2.2447,2.2436,2.2431,2.2422,2.2428,2.2418,2.2411,2.2413,2.2399,2.2395,2.2386,2.2371,2.2364,2.2366,2.234,2.2348,2.2347,2.2345,2.2336,2.2334,2.2332,2.236,2.236,2.236,0,0,2.2439,2.2435,2.2425,2.242,2.2413,2.2411,2.2409,2.2402,2.2399,2.2386,2.2388,2.2379,2.2362,2.2356,2.235,2.2333,2.2333,2.233,2.2321,2.2312,2.231,2.2308,2.2301,2.2299,2.2328,2.2328,2.2328,0,2.2431,2.2418,2.2419,2.2409,2.2404,2.2407,2.2396,2.2391,2.2381,2.2377,2.2381,2.236,2.2354,2.2338,2.2334,2.2329,2.2326,2.233,2.2311,2.2309,2.2307,2.23,2.2298,2.2328,2.2328,2.2328,2.2328,0,2.2408,2.24,2.2392,2.2383,2.2378,2.2367,2.2365,2.2359,2.236,2.2357,2.2344,2.2338,2.2327,2.2323,2.2323,2.2306,2.2308,2.2312,2.2317,2.2304,2.2298,2.2295,2.2327,2.2327,2.2327,2.2327,0,0,2.2384,2.2378,2.2375,2.2371,2.2365,2.2357,2.2347,2.2338,2.2333,2.2327,2.2317,2.2304,2.2307,2.2301,2.23,2.2293,2.2279,2.2297,2.2296,2.2293,2.226,2.2256,2.2253,2.228,2.2279,2.2279,2.226,0,2.2366,2.2348,2.2349,2.2333,2.2324,2.2328,2.2319,2.2314,2.2312,2.2304,2.2301,2.2291,2.2297,2.2293,2.2286,2.2282,2.2272,2.2283,2.227,2.2269,2.2271,2.225,2.2247,2.2229,2.2258,2.2257,2.2257,0,2.2341,2.2335,2.2318,2.2314,2.231,2.2302,2.2294,2.2287,2.2281,2.228,2.2275,2.2275,2.2264,2.2272,2.2256,2.2264,2.2259,2.2257,2.2256,2.2253,2.2261,2.2246,2.2223,2.222,2.2253,2.2253,2.2254,0,2.2324,2.2312,2.23,2.2297,2.2292,2.2286,2.2284,2.2279,2.2273,2.2267,2.2263,2.2255,2.225,2.2243,2.2241,2.2247,2.2225,2.2233,2.2223,2.2223,2.2217,2.2217,2.2192,2.2216,2.2216,2.2216,2.2216,0,2.2302,2.2292,2.2293,2.2285,2.2274,2.2275,2.2263,2.2261,2.2256,2.2248,2.2251,2.2243,2.2242,2.2234,2.2232,2.222,2.2217,2.2216,2.2215,2.2214,2.2215,2.221,2.221,2.2215,2.2216,2.2216,2.2216,0,2.228,2.2281,2.2268,2.2265,2.2264,2.2256,2.2252,2.2245,2.2244,2.2234,2.2231,2.2229,2.222,2.2218,2.2207,2.2206,2.219,2.2191,2.2192,2.2192,2.2182,2.2183,2.2152,2.2148,2.2176,2.2175,2.2175,0,2.2266,2.2258,2.2254,2.225,2.2247,2.224,2.2235,2.2236,2.2231,2.2225,2.2218,2.2209,2.2202,2.2187,2.2184,2.2175,2.2175,2.2165,2.2174,2.2174,2.2174,2.2174,2.2173,2.2163,2.2163,2.2162,2.2162,0,2.2239,2.224,2.2234,2.2228,2.2223,2.2218,2.2213,2.2209,2.221,2.2204,2.2195,2.2189,2.2179,2.2169,2.2161,2.2158,2.2159,2.216,2.2157,2.2155,2.2156,2.2155,2.2186,2.216,2.216,2.216,2.216,2.2161,2.2219,2.2213,2.221,2.2202,2.22,2.2196,2.2189,2.2188,2.2181,2.2173,2.2174,2.2164,2.2159,2.2149,2.2145,2.2137,2.214,2.2136,2.2134,2.2133,2.2132,2.2159,2.2135,2.2135,2.2135,2.2135,2.2135,0,2.2192,2.2191,2.2185,2.2179,2.2173,2.2178,2.2173,2.2168,2.216,2.2156,2.2149,2.2139,2.2131,2.2128,2.212,2.2113,2.2114,2.2111,2.2111,2.211,2.213,2.2133,2.2111,2.2111,2.2111,2.2111,2.2111,2.2111,2.2177,2.2166,2.2167,2.2154,2.2153,2.2144,2.2141,2.2137,2.2134,2.2123,2.2117,2.2116,2.2112,2.2104,2.2096,2.2096,2.2092,2.2088,2.2088,2.2106,2.2108,2.2111,2.2113,2.2088,2.2088,2.2068,2.2068,2.2068]}]]